Location: *
(42.3442°N, 9.2072°E)
Time: 19:08:12
(UTC+00:00)

Cosmos 841 Rocket - Pass Details

Date: 09 April 2020
Orbit: 747 x 772 km, 74.0° (Epoch: 02 June)

Event Time Altitude Azimuth Distance (km) Brightness Sun altitude
Rises 20:22:31 0° 346° (NNW) 3,255 7.6 -24.8°
Reaches altitude 10° 20:25:02 10° 353° (N) 2,323 6.6 -25.2°
Enters shadow 20:29:34 41° 49° (NE) 1,106 4.2 -25.8°
